Previsão horária em Allieres

Hoje, 25 Junho, Sexta-feira

Tempo Temperatura Precipitação Vento Pressão Humidade
00:00 +7°C° 0 mm 1 m/s 645 mmHg 96%
01:00 +7°C° 0 mm 1 m/s 645 mmHg 96%
02:00 +7°C° 0 mm 1 m/s 645 mmHg 96%
03:00 +7°C° 0 mm 1 m/s 645 mmHg 97%
04:00 +7°C° 0 mm 1 m/s 645 mmHg 96%
05:00 +8°C° 0 mm 1 m/s 645 mmHg 94%
06:00 +7°C° 0 mm 2 m/s 645 mmHg 92%
07:00 +8°C° 0 mm 2 m/s 646 mmHg 84%
08:00 +10°C° 0 mm 2 m/s 646 mmHg 76%
09:00 +11°C° 0 mm 3 m/s 646 mmHg 67%
10:00 +12°C° 0 mm 3 m/s 646 mmHg 64%
11:00 +13°C° 0 mm 3 m/s 646 mmHg 61%
12:00 +14°C° 0 mm 3 m/s 646 mmHg 58%
13:00 +14°C° 0 mm 3 m/s 646 mmHg 57%
14:00 +16°C° 0 mm 3 m/s 646 mmHg 56%
15:00 +16°C° 0 mm 3 m/s 646 mmHg 54%
16:00 +15°C° 0 mm 2 m/s 646 mmHg 60%
17:00 +14°C° 0 mm 2 m/s 646 mmHg 66%
18:00 +13°C° 0 mm 2 m/s 645 mmHg 73%
19:00 +12°C° 0 mm 1 m/s 645 mmHg 78%
20:00 +10°C° 0 mm 1 m/s 645 mmHg 84%
21:00 +8°C° 0 mm 1 m/s 644 mmHg 90%
22:00 +8°C° 0 mm 1 m/s 644 mmHg 90%
23:00 +7°C° 0 mm 1 m/s 644 mmHg 90%

Amanhã, 26 Junho, Sábado

Tempo Temperatura Precipitação Vento Pressão Humidade
00:00 +7°C° 0 mm 1 m/s 643 mmHg 89%
01:00 +7°C° 0 mm 1 m/s 643 mmHg 88%
02:00 +7°C° 0 mm 1 m/s 643 mmHg 87%
03:00 +6°C° 0 mm 1 m/s 643 mmHg 86%
04:00 +8°C° 0 mm 1 m/s 644 mmHg 81%
05:00 +9°C° 0 mm 1 m/s 644 mmHg 76%
06:00 +10°C° 0 mm 0 m/s 644 mmHg 71%
07:00 +12°C° 0 mm 0 m/s 645 mmHg 62%
08:00 +15°C° 0 mm 1 m/s 646 mmHg 54%
09:00 +18°C° 0 mm 1 m/s 646 mmHg 45%
10:00 +19°C° 0 mm 1 m/s 646 mmHg 42%
11:00 +20°C° 0 mm 1 m/s 646 mmHg 39%
12:00 +22°C° 0 mm 1 m/s 647 mmHg 36%
13:00 +22°C° 0 mm 1 m/s 646 mmHg 36%
14:00 +22°C° 0 mm 1 m/s 646 mmHg 37%
15:00 +22°C° 0 mm 1 m/s 646 mmHg 38%
16:00 +21°C° 0 mm 1 m/s 646 mmHg 48%
17:00 +19°C° 0 mm 1 m/s 645 mmHg 58%
18:00 +16°C° 0 mm 0 m/s 645 mmHg 69%
19:00 +16°C° 0 mm 1 m/s 645 mmHg 70%
20:00 +14°C° 0 mm 1 m/s 644 mmHg 71%
21:00 +12°C° 0 mm 1 m/s 644 mmHg 72%
22:00 +12°C° 0 mm 2 m/s 644 mmHg 71%
23:00 +10°C° 0 mm 2 m/s 644 mmHg 70%

Depois de amanhã, 27 Junho, Domingo

Tempo Temperatura Precipitação Vento Pressão Humidade
00:00 +10°C° 0 mm 2 m/s 644 mmHg 68%
01:00 +10°C° 0 mm 2 m/s 643 mmHg 67%
02:00 +10°C° 0 mm 2 m/s 643 mmHg 66%
03:00 +10°C° 0 mm 2 m/s 643 mmHg 64%
04:00 +12°C° 0 mm 1 m/s 643 mmHg 65%
05:00 +13°C° 0 mm 1 m/s 643 mmHg 66%
06:00 +14°C° 0 mm 1 m/s 644 mmHg 67%
07:00 +16°C° 0 mm 1 m/s 644 mmHg 61%
08:00 +19°C° 0 mm 1 m/s 645 mmHg 56%
09:00 +21°C° 0 mm 1 m/s 645 mmHg 50%
10:00 +21°C° 0 mm 2 m/s 645 mmHg 47%
11:00 +23°C° 0 mm 2 m/s 646 mmHg 44%
12:00 +24°C° 0 mm 3 m/s 646 mmHg 41%
13:00 +22°C° 0 mm 3 m/s 646 mmHg 43%
14:00 +22°C° 0 mm 3 m/s 645 mmHg 44%
15:00 +22°C° 0 mm 3 m/s 645 mmHg 46%
16:00 +21°C° 0 mm 3 m/s 645 mmHg 54%
17:00 +20°C° 0 mm 2 m/s 644 mmHg 61%
18:00 +19°C° 0 mm 2 m/s 644 mmHg 68%
19:00 +17°C° 0 mm 2 m/s 644 mmHg 71%
20:00 +15°C° 0 mm 2 m/s 643 mmHg 74%
21:00 +14°C° 0 mm 2 m/s 643 mmHg 76%
22:00 +13°C° 0 mm 2 m/s 643 mmHg 77%
23:00 +13°C° 0 mm 2 m/s 643 mmHg 77%

28 Junho, Segunda-feira

Tempo Temperatura Precipitação Vento Pressão Humidade
00:00 +12°C° 0 mm 2 m/s 643 mmHg 78%
01:00 +12°C° 0 mm 1 m/s 643 mmHg 80%
02:00 +11°C° 0 mm 1 m/s 643 mmHg 82%
03:00 +11°C° 0 mm 1 m/s 643 mmHg 84%
04:00 +12°C° 0 mm 1 m/s 643 mmHg 81%
05:00 +13°C° 0 mm 1 m/s 643 mmHg 78%
06:00 +13°C° 0 mm 0 m/s 643 mmHg 75%
07:00 +16°C° 0 mm 1 m/s 644 mmHg 67%
08:00 +19°C° 0 mm 1 m/s 644 mmHg 60%
09:00 +21°C° 0 mm 1 m/s 645 mmHg 52%
10:00 +21°C° 0 mm 2 m/s 645 mmHg 50%
11:00 +21°C° 0 mm 3 m/s 645 mmHg 49%
12:00 +22°C° 0 mm 3 m/s 645 mmHg 48%
13:00 +20°C° 0.3 mm 2 m/s 645 mmHg 57%
14:00 +19°C° 0.3 mm 2 m/s 644 mmHg 65%
15:00 +18°C° 0.3 mm 1 m/s 644 mmHg 74%
16:00 +18°C° 0.3 mm 1 m/s 644 mmHg 77%
17:00 +18°C° 0.3 mm 1 m/s 644 mmHg 80%
18:00 +18°C° 0.3 mm 1 m/s 644 mmHg 83%
19:00 +15°C° 0.9 mm 1 m/s 643 mmHg 86%
20:00 +13°C° 0.9 mm 1 m/s 643 mmHg 89%
21:00 +12°C° 0.9 mm 1 m/s 643 mmHg 92%
22:00 +11°C° 0.6 mm 1 m/s 643 mmHg 93%
23:00 +10°C° 0.6 mm 1 m/s 643 mmHg 94%

29 Junho, Terça-feira

Tempo Temperatura Precipitação Vento Pressão Humidade
00:00 +10°C° 0.6 mm 1 m/s 643 mmHg 94%
01:00 +10°C° 0.3 mm 1 m/s 643 mmHg 95%
02:00 +9°C° 0.3 mm 0 m/s 642 mmHg 96%
03:00 +9°C° 0.3 mm 0 m/s 642 mmHg 96%
04:00 +9°C° 0.4 mm 0 m/s 643 mmHg 96%
05:00 +10°C° 0.4 mm 0 m/s 643 mmHg 95%
06:00 +10°C° 0.4 mm 0 m/s 643 mmHg 94%
07:00 +12°C° 0.2 mm 1 m/s 643 mmHg 86%
08:00 +14°C° 0.2 mm 1 m/s 644 mmHg 78%
09:00 +15°C° 0.2 mm 1 m/s 644 mmHg 69%
10:00 +16°C° 0.3 mm 2 m/s 644 mmHg 64%
11:00 +17°C° 0.3 mm 2 m/s 644 mmHg 58%
12:00 +17°C° 0.3 mm 2 m/s 644 mmHg 53%
13:00 +17°C° 0.2 mm 2 m/s 644 mmHg 53%
14:00 +17°C° 0.2 mm 2 m/s 644 mmHg 54%
15:00 +17°C° 0.2 mm 2 m/s 644 mmHg 54%
16:00 +15°C° 0.3 mm 2 m/s 644 mmHg 63%
17:00 +14°C° 0.3 mm 2 m/s 644 mmHg 71%
18:00 +12°C° 0.3 mm 2 m/s 643 mmHg 80%
19:00 +10°C° 0 mm 2 m/s 643 mmHg 83%
20:00 +10°C° 0 mm 1 m/s 643 mmHg 86%
21:00 +8°C° 0 mm 1 m/s 643 mmHg 90%
22:00 +8°C° 0 mm 1 m/s 643 mmHg 90%
23:00 +7°C° 0 mm 1 m/s 643 mmHg 91%

30 Junho, Quarta-feira

Tempo Temperatura Precipitação Vento Pressão Humidade
00:00 +7°C° 0 mm 1 m/s 642 mmHg 92%
01:00 +6°C° 0 mm 1 m/s 642 mmHg 93%
02:00 +6°C° 0 mm 1 m/s 642 mmHg 94%
03:00 +6°C° 0 mm 1 m/s 642 mmHg 95%
04:00 +7°C° 0 mm 1 m/s 642 mmHg 93%
05:00 +7°C° 0 mm 1 m/s 642 mmHg 90%
06:00 +8°C° 0 mm 1 m/s 642 mmHg 88%
07:00 +9°C° 0 mm 2 m/s 643 mmHg 81%
08:00 +10°C° 0 mm 2 m/s 643 mmHg 75%
09:00 +12°C° 0 mm 2 m/s 643 mmHg 69%
10:00 +12°C° 0.2 mm 2 m/s 643 mmHg 71%
11:00 +11°C° 0.2 mm 3 m/s 643 mmHg 72%
12:00 +11°C° 0.2 mm 3 m/s 643 mmHg 74%
13:00 +11°C° 0.3 mm 3 m/s 644 mmHg 75%
14:00 +11°C° 0.3 mm 3 m/s 644 mmHg 76%
15:00 +11°C° 0.3 mm 3 m/s 644 mmHg 77%
16:00 +11°C° 0.1 mm 3 m/s 644 mmHg 79%
17:00 +10°C° 0.1 mm 3 m/s 644 mmHg 81%
18:00 +9°C° 0.1 mm 3 m/s 644 mmHg 83%
19:00 +8°C° 0 mm 2 m/s 644 mmHg 87%
20:00 +7°C° 0 mm 2 m/s 644 mmHg 91%
21:00 +7°C° 0 mm 1 m/s 643 mmHg 95%
22:00 +6°C° 0 mm 1 m/s 643 mmHg 95%
23:00 +6°C° 0 mm 1 m/s 643 mmHg 95%
Mostrar mais